Snowfall_Accumulation
0.0 0.1 0.7 0.1 0.0 0.0 0.1 0.5 0.3 0.0 0.0 0.0 0.0 0.0 0.0 0.0 0.0 0.0 0.0 0.0 0.0 0.0 0.0 0.0 0.0 0.0 0.0 0.0 0.0 0.0 0.0 0.0 0.0 0.0 0.0 0.0 0.0 0.0 0.0 0.0 0.0 0.0 0.0 0.0
0.2 0.1 0.0 0.0 0.0 0.0 0.2 0.7 0.7 0.0 0.0 0.0 0.0 0.0 0.0 0.0 0.0 0.0 0.0 0.0 0.0 0.0 0.0 0.0 0.0 0.0 0.0 0.0 0.0 0.0 0.0 0.0 0.0 0.0 0.0 0.0 0.0 0.0 0.0 0.0 0.0 0.0 0.0 0.0
0.3 0.0 0.0 0.0 0.1 1.0 0.6 1.0 0.2 0.0 0.0 0.0 0.0 0.1 0.0 0.0 0.0 0.0 0.0 0.0 0.0 0.0 0.0 0.0 0.0 0.0 0.0 0.0 0.0 0.0 0.0 0.0 0.0 0.0 0.0 0.0 0.0 0.0 0.0 0.0 0.0 0.0 0.0 0.0
0.1 0.0 0.0 0.0 0.4 0.1 3.6 0.0 0.0 0.2 1.4 1.8 0.0 3.5 0.0 0.0 0.0 0.0 0.0 0.0 0.0 0.0 0.0 0.0 0.0 0.0 0.0 0.0 0.0 0.0 0.0 0.0 0.0 0.0 0.0 0.0 0.0 0.0 0.0 0.0 0.0 0.0 0.0 0.0
0.5 0.0 0.2 3.3 0.2 0.1 4.0 0.0 0.3 0.7 2.0 1.5 0.2 4.0 0.0 0.0 0.0 0.0 0.0 0.0 0.0 0.0 0.0 0.0 0.0 0.0 0.0 0.0 0.0 0.0 0.0 0.0 0.0 0.0 0.0 0.0 0.0 0.0 0.0 0.0 0.0 0.0 0.0 0.0
0.5 0.0 0.9 0.5 0.0 0.2 0.2 0.9 0.2 0.9 1.7 16.8 0.0 0.1 0.0 0.0 0.0 0.0 0.0 0.0 0.0 0.0 0.0 0.0 0.0 0.0 0.0 0.0 0.0 0.0 0.0 0.0 0.0 0.0 0.0 0.0 0.0 0.0 0.0 0.0 0.0 0.0 0.0 0.0
0.2 0.3 0.1 0.1 1.4 0.1 1.2 2.5 16.5 22.9 29.8 10.2 0.0 0.2 0.0 0.0 0.0 0.0 0.0 0.0 0.0 0.0 0.0 0.0 0.0 0.0 0.0 0.0 0.0 0.0 0.0 0.0 0.0 0.0 0.0 0.0 0.0 0.0 0.0 0.0 0.0 0.0 0.0 0.0
5.1 8.0 2.0 1.2 2.1 5.0 0.8 2.7 6.2 8.3 6.7 2.7 0.0 5.1 0.1 0.0 0.0 0.0 0.0 0.0 0.0 0.0 0.0 0.0 0.0 0.0 0.0 0.0 0.0 0.0 0.0 0.0 0.0 0.0 0.0 0.0 0.0 0.0 0.0 0.0 0.0 0.0 0.0 0.0
7.8 3.7 0.2 0.9 1.0 0.4 1.7 3.3 0.0 5.7 3.3 3.1 1.8 0.1 0.0 0.2 1.2 0.2 0.0 0.0 0.0 0.0 0.0 0.0 0.0 0.0 0.0 0.0 0.0 0.0 0.0 0.0 0.0 0.0 0.0 0.0 0.0 0.0 0.0 0.0 0.0 0.0 0.0 0.0
4.0 10.9 0.0 0.1 1.5 0.3 0.7 0.3 4.1 4.2 13.8 6.9 1.1 1.5 5.6 1.8 1.6 0.0 0.0 0.0 0.0 0.0 0.0 0.0 0.0 0.0 0.0 0.0 0.0 0.0 0.0 0.0 0.0 0.0 0.0 0.0 0.0 0.0 0.0 0.0 0.0 0.0 0.0 0.0
0.7 6.1 1.6 0.5 6.5 5.7 1.3 1.5 1.0 1.9 4.5 11.5 6.7 8.3 8.3 1.8 1.1 0.2 0.0 0.0 0.0 0.0 0.0 0.0 0.0 0.0 0.0 0.0 0.0 0.0 0.0 0.0 0.0 0.0 0.0 0.0 0.0 0.0 0.0 0.0 0.0 0.0 0.0 0.0
0.6 4.5 9.6 9.0 4.1 1.0 0.5 5.2 3.0 8.6 5.4 4.4 6.7 6.7 4.0 3.5 2.2 0.1 0.0 0.0 0.0 0.0 0.0 0.0 0.0 0.0 0.0 0.0 0.0 0.0 0.0 0.0 0.0 0.0 0.0 0.0 0.0 0.0 0.0 0.0 0.0 0.0 0.0 0.0
2.8 1.8 9.6 8.3 4.5 0.3 2.1 1.6 2.2 1.5 2.5 7.3 10.0 9.6 4.1 3.0 2.3 0.6 0.1 0.0 0.0 0.0 0.0 0.0 0.0 0.0 0.0 0.0 0.0 0.0 0.0 0.0 0.0 0.0 0.0 0.0 0.0 0.0 0.0 0.0 0.0 0.0 0.0 0.0
nan 2.1 6.4 12.2 11.0 7.5 7.3 2.3 1.0 2.0 15.9 9.9 10.1 11.0 8.4 5.3 4.1 2.4 0.9 0.1 0.0 0.0 0.0 0.0 0.0 0.0 0.0 0.0 0.0 0.0 0.0 0.0 0.0 0.0 0.0 0.0 0.0 0.0 0.0 0.0 0.1 0.1 0.0 0.0
1.1 6.9 4.2 6.2 6.0 8.1 8.2 5.1 2.4 5.1 7.6 7.8 10.3 9.3 9.6 8.1 6.0 4.6 1.9 0.5 0.2 0.1 0.1 0.0 0.0 0.0 0.0 0.0 0.0 0.0 0.0 0.0 0.0 0.0 0.0 0.0 0.0 0.0 0.0 0.0 0.0 0.0 0.1 0.3
0.9 6.6 4.2 5.8 5.1 7.8 7.6 4.2 3.2 1.9 3.1 3.5 4.5 7.2 9.5 7.7 3.8 2.9 2.6 1.4 1.3 0.4 0.3 0.2 0.1 0.1 0.0 0.0 0.0 0.0 0.0 0.0 0.0 0.0 0.0 0.0 0.0 0.0 0.1 0.1 0.3 0.6 1.8 2.3
2.6 6.0 8.8 17.6 3.8 2.5 15.3 16.5 7.3 8.4 6.9 3.6 9.6 17.6 13.2 12.3 7.4 6.4 4.7 2.5 2.3 2.0 0.9 1.2 1.2 0.5 0.4 0.5 0.2 0.7 0.9 0.2 0.1 0.1 0.1 0.1 0.0 0.3 0.7 0.6 0.7 1.9 2.9 2.0
2.2 4.4 5.1 19.5 7.9 44.8 17.2 7.7 7.6 16.9 9.6 9.5 7.1 10.7 12.4 14.9 11.7 8.5 7.6 5.6 5.3 4.7 3.9 3.4 2.9 1.8 2.0 0.8 1.1 0.2 0.1 0.2 0.3 0.8 0.7 0.6 0.4 1.0 1.1 0.9 1.5 1.7 1.6 1.5
1.0 3.3 22.0 36.6 22.9 6.0 1.3 10.8 13.5 10.3 16.3 13.3 12.7 9.9 13.3 6.0 0.5 9.7 10.2 9.0 9.8 7.6 5.7 5.4 5.2 6.0 1.6 2.7 2.2 1.0 1.7 1.2 0.8 2.0 2.0 2.0 1.3 1.5 1.1 1.2 1.2 1.4 1.5 1.4
0.3 1.2 3.9 25.4 28.5 33.9 11.1 4.3 1.6 4.1 17.3 16.7 19.4 18.0 8.9 0.0 7.6 20.1 14.9 8.7 8.2 6.9 5.2 4.8 3.8 2.7 1.7 2.1 0.9 0.3 0.4 0.5 0.9 1.0 1.1 1.1 1.0 1.0 1.1 0.8 0.8 0.9 0.6 0.5
10.8 13.2 25.6 20.3 22.0 12.8 4.8 0.8 0.0 10.0 20.2 18.1 16.1 15.4 2.0 5.3 8.3 11.6 6.6 4.9 4.7 4.0 4.0 2.7 2.1 2.2 1.8 1.4 1.6 1.4 1.0 1.4 0.6 0.5 0.3 0.3 0.3 0.8 0.3 0.3 0.3 0.5 0.6 0.3
6.5 13.7 25.5 16.7 23.3 38.7 2.2 0.0 5.8 12.4 9.6 10.9 8.7 6.3 5.7 8.3 7.8 5.6 4.4 4.5 3.2 3.3 1.8 1.2 0.5 0.3 0.2 0.1 0.1 0.2 0.3 0.3 0.6 0.8 0.9 1.1 1.7 1.0 0.9 2.8 1.4 2.3 1.8 2.0
6.2 2.3 5.3 3.4 7.5 4.1 3.6 4.3 5.1 5.6 5.6 5.3 3.0 2.2 0.9 0.6 1.0 0.2 0.1 0.0 0.0 0.0 0.0 0.1 0.2 0.2 0.2 0.5 0.5 0.8 0.9 0.9 1.6 2.8 4.3 3.8 2.9 2.4 2.2 3.6 2.3 4.1 2.8 4.1
0.4 0.0 1.2 2.1 1.7 3.3 4.1 2.3 2.4 2.3 0.8 0.2 0.0 0.0 0.0 0.0 0.0 0.0 0.0 0.0 0.0 0.0 0.1 0.2 0.4 0.6 0.6 0.5 0.6 0.4 0.8 1.2 5.4 5.1 2.7 1.9 2.4 1.4 1.8 2.5 2.9 4.5 4.4 4.1
0.3 0.1 0.2 1.2 1.0 1.8 1.0 0.7 1.0 1.2 1.0 0.2 0.0 0.0 0.0 0.0 0.0 0.0 0.1 0.1 0.1 0.1 0.3 0.6 0.7 0.6 0.7 0.7 0.8 1.6 1.6 2.3 2.7 3.3 2.1 2.5 3.1 3.2 2.2 1.9 3.2 2.8 1.3 3.5
0.1 0.3 0.5 1.5 0.8 0.6 0.3 0.0 0.0 0.0 0.1 0.0 0.0 0.0 0.1 0.0 0.0 0.1 0.2 0.1 0.2 0.4 0.6 1.0 1.3 1.3 1.4 2.0 2.4 3.4 4.4 3.7 4.2 2.3 3.8 3.3 3.2 3.2 3.0 3.4 4.3 nan nan nan
Water_Equivalent
0.00 0.01 0.17 0.02 0.00 0.00 0.01 0.07 0.04 0.00 0.00 0.00 0.00 0.00 0.00 0.00 0.00 0.00 0.00 0.00 0.00 0.00 0.00 0.00 0.00 0.00 0.00 0.00 0.00 0.00 0.00 0.00 0.00 0.00 0.00 0.00 0.00 0.00 0.00 0.00 0.00 0.00 0.00 0.00
0.05 0.03 0.00 0.00 0.00 0.00 0.03 0.09 0.10 0.00 0.00 0.00 0.00 0.00 0.00 0.00 0.00 0.00 0.00 0.00 0.00 0.00 0.00 0.00 0.00 0.00 0.00 0.00 0.00 0.00 0.00 0.00 0.00 0.00 0.00 0.00 0.00 0.00 0.00 0.00 0.00 0.00 0.00 0.00
0.07 0.00 0.00 0.00 0.03 0.14 0.09 0.13 0.02 0.01 0.00 0.00 0.00 0.01 0.00 0.00 0.00 0.00 0.00 0.00 0.00 0.00 0.00 0.00 0.00 0.00 0.00 0.00 0.00 0.00 0.00 0.00 0.00 0.00 0.00 0.00 0.00 0.00 0.00 0.00 0.00 0.00 0.00 0.00
0.02 0.00 0.00 0.00 0.06 0.04 0.51 0.00 0.00 0.05 0.24 0.26 0.00 0.72 0.00 0.00 0.00 0.00 0.00 0.00 0.00 0.00 0.00 0.00 0.00 0.00 0.00 0.00 0.00 0.00 0.00 0.00 0.00 0.00 0.00 0.00 0.00 0.00 0.00 0.00 0.00 0.00 0.00 0.00
0.09 0.01 0.04 0.47 0.03 0.01 0.56 0.00 0.05 0.10 0.32 0.19 0.02 0.46 0.00 0.00 0.00 0.00 0.00 0.00 0.00 0.00 0.00 0.00 0.00 0.00 0.00 0.00 0.00 0.00 0.00 0.00 0.00 0.00 0.00 0.00 0.00 0.00 0.00 0.00 0.00 0.00 0.00 0.00
0.10 0.00 0.18 0.10 0.00 0.05 0.03 0.14 0.03 0.13 0.28 2.65 0.01 0.01 0.00 0.00 0.00 0.00 0.00 0.00 0.00 0.00 0.00 0.00 0.00 0.00 0.00 0.00 0.00 0.00 0.00 0.00 0.00 0.00 0.00 0.00 0.00 0.00 0.00 0.00 0.00 0.00 0.00 0.00
0.05 0.06 0.02 0.01 0.23 0.01 0.25 0.37 2.67 3.81 4.57 1.63 0.00 0.04 0.00 0.00 0.00 0.00 0.00 0.00 0.00 0.00 0.00 0.00 0.00 0.00 0.00 0.00 0.00 0.00 0.00 0.00 0.00 0.00 0.00 0.00 0.00 0.00 0.00 0.00 0.00 0.00 0.00 0.00
0.88 1.54 0.37 0.30 0.32 0.62 0.12 0.36 0.89 0.95 0.95 0.43 0.00 0.93 0.01 0.00 0.00 0.00 0.00 0.00 0.00 0.00 0.00 0.00 0.00 0.00 0.00 0.00 0.00 0.00 0.00 0.00 0.00 0.00 0.00 0.00 0.00 0.00 0.00 0.00 0.00 0.00 0.00 0.00
1.02 0.61 0.04 0.19 0.22 0.08 0.24 0.50 0.00 0.78 0.63 0.46 0.42 0.03 0.00 0.03 0.18 0.03 0.00 0.00 0.00 0.00 0.00 0.00 0.00 0.00 0.00 0.00 0.00 0.00 0.00 0.00 0.00 0.00 0.00 0.00 0.00 0.00 0.00 0.00 0.00 0.00 0.00 0.00
0.53 1.29 0.01 0.03 0.38 0.09 0.12 0.05 0.62 0.89 2.00 0.88 0.18 0.19 0.68 0.28 0.28 0.00 0.00 0.00 0.00 0.00 0.00 0.00 0.00 0.00 0.00 0.00 0.00 0.00 0.00 0.00 0.00 0.00 0.00 0.00 0.00 0.00 0.00 0.00 0.00 0.00 0.00 0.00
0.11 0.75 0.32 0.09 1.48 0.97 0.20 0.19 0.13 0.22 0.71 1.39 0.79 1.12 1.59 0.22 0.11 0.03 0.00 0.00 0.00 0.00 0.00 0.00 0.00 0.00 0.00 0.00 0.00 0.00 0.00 0.00 0.00 0.00 0.00 0.00 0.00 0.00 0.00 0.00 0.00 0.00 0.00 0.00
0.09 0.55 1.42 1.50 0.84 0.21 0.10 0.71 0.36 1.48 0.85 0.74 0.96 0.82 0.80 0.42 0.32 0.02 0.00 0.00 0.00 0.00 0.00 0.00 0.00 0.00 0.00 0.00 0.00 0.00 0.00 0.00 0.00 0.00 0.00 0.00 0.00 0.00 0.00 0.00 0.00 0.00 0.00 0.00
0.37 0.35 1.74 1.47 0.82 0.07 0.34 0.23 0.34 0.19 0.42 1.12 1.57 1.26 0.56 0.51 0.45 0.17 0.03 0.00 0.00 0.00 0.00 0.00 0.00 0.00 0.00 0.00 0.00 0.00 0.00 0.00 0.00 0.00 0.00 0.00 0.00 0.00 0.00 0.00 0.00 0.00 0.00 0.00
nan 0.25 0.77 1.35 1.32 1.09 0.91 0.37 0.13 0.29 2.91 1.41 1.13 1.12 0.88 0.64 0.63 0.42 0.25 0.04 0.02 0.00 0.00 0.00 0.00 0.00 0.00 0.00 0.00 0.00 0.00 0.00 0.00 0.00 0.00 0.00 0.00 0.00 0.00 0.00 0.01 0.01 0.00 0.00
0.14 1.14 0.49 0.80 0.78 1.15 1.25 0.71 0.30 0.57 1.00 1.08 1.17 0.98 0.98 0.88 0.79 0.80 0.55 0.12 0.04 0.03 0.02 0.01 0.01 0.01 0.01 0.00 0.00 0.00 0.00 0.00 0.00 0.00 0.00 0.00 0.00 0.01 0.01 0.00 0.00 0.01 0.02 0.06
0.12 1.23 0.48 0.88 0.77 1.14 1.09 0.55 0.44 0.26 0.37 0.47 0.67 0.88 1.16 1.05 0.58 0.56 0.57 0.27 0.21 0.08 0.06 0.04 0.02 0.02 0.00 0.00 0.01 0.00 0.01 0.00 0.00 0.00 0.00 0.00 0.00 0.00 0.01 0.05 0.11 0.22 0.55 0.68
0.31 0.80 2.05 3.65 0.52 0.35 2.55 1.68 0.87 1.04 0.83 0.46 0.94 2.15 1.89 1.66 0.99 0.89 0.68 0.40 0.41 0.43 0.20 0.27 0.26 0.12 0.09 0.12 0.04 0.11 0.17 0.06 0.02 0.02 0.02 0.02 0.01 0.07 0.15 0.11 0.12 0.33 0.50 0.34
0.28 0.69 1.08 4.30 1.94 7.16 2.01 1.08 1.02 1.97 1.18 1.09 0.82 1.31 1.67 1.98 1.35 1.07 0.88 0.61 0.64 0.64 0.63 0.56 0.50 0.34 0.43 0.16 0.27 0.05 0.02 0.03 0.06 0.14 0.13 0.10 0.07 0.20 0.21 0.16 0.26 0.30 0.28 0.27
0.16 0.45 4.52 6.52 3.74 0.82 0.20 1.27 1.42 1.06 1.73 1.59 1.34 1.16 1.81 1.04 0.08 1.30 1.42 1.08 1.18 0.87 0.78 0.72 0.76 0.85 0.24 0.39 0.30 0.15 0.23 0.16 0.12 0.28 0.31 0.32 0.24 0.27 0.21 0.22 0.21 0.25 0.24 0.23
0.08 0.17 0.61 5.42 5.38 4.40 1.16 0.53 0.25 0.60 1.79 1.97 2.32 2.06 1.34 0.02 0.84 2.42 2.23 1.10 1.07 0.85 0.62 0.58 0.46 0.37 0.26 0.33 0.15 0.08 0.09 0.09 0.14 0.15 0.17 0.18 0.20 0.20 0.21 0.16 0.16 0.18 0.13 0.12
2.28 3.19 5.37 4.21 4.31 2.02 0.59 0.11 0.00 1.04 1.88 2.22 2.05 1.94 0.25 0.47 0.91 1.53 0.86 0.62 0.61 0.51 0.53 0.36 0.29 0.28 0.29 0.27 0.28 0.20 0.16 0.20 0.12 0.11 0.07 0.06 0.07 0.14 0.06 0.07 0.06 0.10 0.12 0.06
1.09 2.50 4.94 3.37 4.42 5.26 0.30 0.00 0.47 1.26 1.22 1.46 1.17 0.81 0.66 1.06 1.05 0.76 0.58 0.60 0.43 0.41 0.23 0.22 0.08 0.05 0.04 0.03 0.02 0.04 0.04 0.04 0.07 0.09 0.11 0.13 0.26 0.16 0.14 0.50 0.25 0.42 0.32 0.35
0.95 0.35 1.02 0.46 1.08 0.57 0.49 0.52 0.68 0.77 0.76 0.76 0.40 0.28 0.11 0.07 0.12 0.03 0.02 0.01 0.00 0.00 0.00 0.01 0.02 0.03 0.02 0.07 0.07 0.09 0.10 0.10 0.17 0.37 0.61 0.56 0.46 0.38 0.37 0.63 0.36 0.70 0.47 0.70
0.07 0.01 0.25 0.33 0.25 0.43 0.54 0.31 0.32 0.33 0.11 0.03 0.00 0.00 0.01 0.01 0.00 0.00 0.00 0.00 0.00 0.01 0.02 0.04 0.08 0.09 0.08 0.07 0.08 0.07 0.10 0.15 0.83 0.81 0.38 0.26 0.34 0.24 0.28 0.48 0.56 0.88 0.76 0.67
0.07 0.03 0.06 0.19 0.15 0.28 0.17 0.09 0.12 0.16 0.16 0.04 0.00 0.00 0.00 0.00 0.00 0.00 0.02 0.03 0.02 0.02 0.04 0.08 0.10 0.09 0.09 0.09 0.10 0.21 0.20 0.30 0.39 0.49 0.26 0.34 0.50 0.54 0.31 0.29 0.54 0.46 0.21 0.61
0.03 0.05 0.13 0.25 0.11 0.09 0.04 0.01 0.00 0.00 0.01 0.01 0.01 0.01 0.01 0.01 0.01 0.02 0.04 0.03 0.04 0.06 0.07 0.12 0.16 0.14 0.14 0.21 0.25 0.38 0.58 0.53 0.56 0.26 0.47 0.46 0.47 0.44 0.40 0.44 0.50 nan nan nan
SL_Ratio
nan 7.0 3.8 6.5 nan nan 6.8 7.4 8.1 5.0 nan nan nan nan nan nan nan nan nan nan nan nan nan nan nan nan nan nan nan nan nan nan nan nan nan nan nan nan nan nan nan nan nan nan
4.3 5.3 nan nan nan 6.3 6.9 7.6 6.9 nan nan 7.5 nan nan nan nan nan nan nan nan nan nan nan nan nan nan nan nan nan nan nan nan nan nan nan nan nan nan nan nan nan nan nan nan
4.3 nan nan nan 4.8 7.2 7.4 7.2 7.4 7.5 nan nan 7.5 5.3 nan nan nan nan nan nan nan nan nan nan nan nan nan nan nan nan nan nan nan nan nan nan nan nan nan nan nan nan nan nan
5.0 nan nan 5.0 6.1 3.4 7.1 nan 6.7 4.3 5.6 6.8 5.0 4.9 nan nan nan nan nan nan nan nan nan nan nan nan nan nan nan nan nan nan nan nan nan nan nan nan nan nan nan nan nan nan
5.9 4.4 5.4 6.9 6.6 5.9 7.1 5.0 5.7 6.7 6.2 7.9 7.6 8.7 nan nan nan nan nan nan nan nan nan nan nan nan nan nan nan nan nan nan nan nan nan nan nan nan nan nan nan nan nan nan
5.0 nan 5.2 5.4 5.8 4.9 4.8 6.6 6.2 6.4 6.1 6.3 5.0 6.6 nan nan nan nan nan nan nan nan nan nan nan nan nan nan nan nan nan nan nan nan nan nan nan nan nan nan nan nan nan nan
4.4 4.7 3.9 5.0 6.0 4.5 5.0 6.8 6.2 6.0 6.5 6.3 nan 4.1 nan nan nan nan nan nan nan nan nan nan nan nan nan nan nan nan nan nan nan nan nan nan nan nan nan nan nan nan nan nan
5.8 5.2 5.4 3.8 6.5 8.0 6.9 7.4 7.0 8.7 7.0 6.2 7.5 5.5 6.3 6.3 nan nan nan nan nan nan nan nan nan nan nan nan nan nan nan nan nan nan nan nan nan nan nan nan nan nan nan nan
7.6 6.2 4.1 4.8 4.3 4.9 7.0 6.6 7.1 7.3 5.1 6.8 4.3 4.9 5.0 5.7 6.8 7.0 nan nan nan nan nan nan nan nan nan nan nan nan nan nan nan nan nan nan nan nan nan nan nan nan nan nan
7.6 8.5 5.0 4.2 3.9 3.9 6.0 6.5 6.6 4.7 6.9 7.8 6.0 8.0 8.2 6.3 5.7 10.0 nan nan nan nan nan nan nan nan nan nan nan nan nan nan nan nan nan nan nan nan nan nan nan nan nan nan
5.9 8.2 4.9 5.3 4.4 5.9 6.3 7.9 7.8 8.4 6.3 8.3 8.5 7.4 5.2 8.2 9.6 4.7 nan nan nan nan nan nan nan nan nan nan nan nan nan nan nan nan nan nan nan nan nan nan nan nan nan nan
6.4 8.1 6.8 6.0 4.9 4.8 5.1 7.3 8.4 5.8 6.3 5.9 6.9 8.2 5.0 8.3 6.9 2.6 3.3 nan nan nan nan nan nan nan nan nan nan nan nan nan nan nan nan nan nan nan nan nan nan nan nan nan
7.6 5.2 5.5 5.6 5.5 4.8 6.1 6.7 6.5 8.0 6.0 6.5 6.4 7.6 7.3 5.9 5.0 3.6 2.5 0.0 nan nan nan nan nan nan nan nan nan nan nan nan nan nan nan nan nan nan nan nan nan nan nan nan
nan 8.4 8.2 9.0 8.4 6.9 8.0 6.2 7.8 6.7 5.5 7.0 8.9 9.8 9.6 8.2 6.6 5.8 3.6 2.9 2.5 3.0 nan nan nan nan nan nan nan nan nan nan nan nan nan nan nan nan 5.0 5.0 5.9 5.5 5.0 5.0
7.5 6.0 8.6 7.8 7.7 7.1 6.5 7.1 8.0 8.9 7.6 7.2 8.8 9.4 9.8 9.2 7.7 5.7 3.4 4.1 4.3 3.8 3.8 3.5 3.5 3.7 4.1 nan 5.0 nan nan nan nan nan nan nan nan 5.0 5.9 nan nan 4.3 4.8 4.7
7.6 5.3 8.6 6.6 6.6 6.8 7.0 7.6 7.2 7.4 8.5 7.5 6.8 8.2 8.2 7.3 6.4 5.2 4.5 5.2 6.0 5.0 4.8 4.8 3.9 4.5 3.6 nan 3.5 3.8 2.9 2.5 nan nan nan nan nan 5.0 5.6 2.9 3.1 2.9 3.3 3.4
8.3 7.5 4.3 4.8 7.4 7.2 6.0 9.8 8.4 8.1 8.3 7.9 10.1 8.2 7.0 7.4 7.5 7.3 6.9 6.3 5.5 4.7 4.6 4.5 4.6 4.2 4.7 4.3 4.1 6.5 5.6 4.2 3.8 3.8 3.0 3.6 3.2 4.8 4.7 5.2 5.5 5.7 5.9 5.9
8.1 6.5 4.7 4.5 4.1 6.3 8.6 7.1 7.4 8.6 8.2 8.7 8.7 8.2 7.4 7.5 8.7 7.9 8.7 9.2 8.3 7.3 6.2 6.2 5.8 5.3 4.5 5.3 4.2 3.7 4.6 6.2 6.1 5.7 5.6 5.6 5.5 5.2 5.4 5.7 5.7 5.6 5.6 5.7
6.4 7.3 4.9 5.6 6.1 7.3 6.7 8.5 9.4 9.7 9.4 8.3 9.4 8.5 7.4 5.8 6.3 7.5 7.2 8.3 8.3 8.7 7.3 7.5 6.8 7.0 6.9 7.0 7.3 6.8 7.3 7.2 6.7 7.0 6.7 6.3 5.4 5.3 5.3 5.5 5.7 5.8 6.2 6.4
3.5 7.1 6.3 4.7 5.3 7.7 9.6 8.1 6.5 6.9 9.6 8.5 8.4 8.7 6.6 2.6 9.0 8.3 6.7 7.9 7.7 8.2 8.4 8.3 8.1 7.4 6.7 6.5 6.0 4.5 5.0 5.1 6.4 6.6 6.6 6.3 5.0 4.9 5.2 4.9 5.2 4.9 4.3 4.4
4.7 4.1 4.8 4.8 5.1 6.3 8.2 7.0 5.0 9.6 10.8 8.2 7.9 7.9 8.0 11.1 9.2 7.6 7.7 7.8 7.8 7.8 7.6 7.5 7.1 7.7 6.1 5.3 5.9 6.7 5.9 6.9 4.8 4.7 4.3 4.9 4.5 5.2 4.3 4.7 5.1 4.9 5.2 5.3
6.0 5.5 5.2 4.9 5.3 7.3 7.4 5.7 12.2 9.9 7.9 7.5 7.4 7.7 8.7 7.9 7.5 7.4 7.5 7.4 7.5 8.0 8.0 5.6 6.0 5.4 5.3 4.3 4.3 5.3 6.8 8.0 8.7 8.5 8.4 7.9 6.5 6.2 6.3 5.6 5.9 5.4 5.8 5.8
6.6 6.8 5.3 7.4 7.0 7.2 7.4 8.2 7.5 7.3 7.4 7.0 7.4 7.8 7.7 8.3 7.8 6.6 6.6 6.8 8.0 10.0 12.0 11.3 7.9 7.8 9.1 7.6 7.2 8.2 9.1 9.1 9.3 7.7 7.1 6.7 6.4 6.2 6.1 5.7 6.5 5.8 6.0 5.8
5.1 5.0 4.7 6.3 6.9 7.6 7.7 7.5 7.5 7.1 6.9 6.4 7.5 7.5 6.9 8.1 6.7 nan nan 0.0 nan 3.9 4.6 5.3 5.8 6.5 6.9 6.8 6.8 6.5 8.1 8.2 6.4 6.4 7.2 7.4 7.0 6.0 6.3 5.3 5.2 5.2 5.7 6.1
3.5 3.9 3.9 6.5 6.7 6.3 6.1 7.8 7.7 7.4 6.5 5.7 nan nan nan nan nan nan 3.7 4.0 3.8 5.4 6.4 7.0 6.9 7.2 7.9 8.0 8.0 7.6 8.0 7.6 6.9 6.7 8.2 7.2 6.3 6.0 7.0 6.7 5.9 6.2 6.4 5.8
4.7 5.4 3.8 5.9 7.2 7.3 7.6 6.4 nan 7.1 7.5 6.5 3.8 3.6 3.5 3.3 3.3 4.3 4.9 4.6 5.2 6.3 7.9 8.5 8.4 9.0 9.9 9.7 9.7 9.0 7.6 7.0 7.5 8.8 8.0 7.2 6.8 7.3 7.4 7.8 8.6 nan nan nan